Regional Weather Roundup
Issued by NWS

Home | Current Version | Previous Version | Text Only | Print | Product List | Glossary Off
Versions: 1 2 3 4 5 6 7 8 9 10 11 12 13 14 15 16 17 18 19 20 21 22 23 24 25 26 27 28

000
ASUS45 KCYS 240210
RWRWY

WYOMING REGIONAL WEATHER ROUNDUP
NATIONAL WEATHER SERVICE CHEYENNE WY
800 PM MDT FRI SEP 23 2016

NOTE:  "FAIR" INDICATES FEW OR NO CLOUDS BELOW 12,000 FEET
WITH NO SIGNIFICANT WEATHER AND/OR OBSTRUCTIONS TO VISIBILITY.

WYZ001-240300-
YELLOWSTONE NATIONAL PARK

CITY           SKY/WX    TMP DP  RH WIND       PRES   REMARKS
LK YELLOWSTONE   N/A     42  42 100 CALM      30.02R
W YELLOWSTONE  NOT AVBL

$$
WYZ002>013-054>058-071-098>099-240300-
NORTHERN WYOMING

CITY           SKY/WX    TMP DP  RH WIND       PRES   REMARKS
JACKSON        CLOUDY    45  43  93 SE6       29.98R
CODY           LGT RAIN  49  46  90 CALM      29.97F
GREYBULL       CLOUDY    52  49  89 E10       29.94F
WORLAND        CLOUDY    50  47  89 NE9       29.91F
SHERIDAN       RAIN      52  50  93 W3        29.95R
BUFFALO        LGT RAIN  50  48  93 N9        29.94F
GILLETTE       LGT RAIN  50  49  96 W20       29.89R
HULETT         LGT RAIN  59  55  88 NW8       29.87S
NEWCASTLE      CLOUDY    52  43  71 NW12G18   29.91S

$$
WYZ014>020-022>026-101>103-240300-
CENTRAL WYOMING

CITY           SKY/WX    TMP DP  RH WIND       PRES   REMARKS
BIG PINEY      LGT RAIN  42  37  82 W6        30.01S
PINEDALE       CLOUDY    37  37 100 SE6       30.02F WCI  33
DUBOIS         CLOUDY    41  37  87 S7        29.97F
LANDER         FAIR      49  42  77 NW9       29.92R
RIVERTON       FAIR      48  42  80 S9        29.94R
CASPER         LGT RAIN  47  41  80 SW12G23   29.99R
DOUGLAS        FAIR      49  39  68 W23       29.93

$$
WYZ021-027>030-104>119-240300-
SOUTHERN WYOMING

CITY           SKY/WX    TMP DP  RH WIND       PRES   REMARKS
EVANSTON       LGT RAIN  37  34  89 SW14      30.05S WCI  28
FORT BRIDGER   MOCLDY    40  39  95 W14       30.07R WCI  32
ROCK SPRINGS   CLOUDY    39  36  89 S8        30.03F WCI  33
DIXON          FAIR      44  36  74 S8        30.07S
RAWLINS        CLOUDY    43  35  73 SW6       30.00F
SARATOGA       CLOUDY    43  36  75 E6        30.04R
LARAMIE        LGT RAIN  43  31  62 SW24G39   30.02R
CHEYENNE       FAIR      53  30  41 NW17G25   29.88R
TORRINGTON     MOCLDY    57  40  52 NW8       29.86R
PINE BLUFFS    CLOUDY    50  41  71 N25G32    29.86R

$$




USA.gov is the U.S. government's official web portal to all federal, state and local government web resources and services.